{"data":{"norad_id":58069,"intl_designator":"2023-158U","name":"STARLINK-30480","alt_names":[],"object_type":"PAYLOAD","status":"ACTIVE","operator":null,"country":"US","launch_date":"2023-10-13","launch_site_code":"AFETR","launch_vehicle":null,"mission":null,"orbit_class":"UNKNOWN","rcs_meters":null,"size_class":null,"mass_kg":null,"dimensions":null,"purposes":["comms"],"wikipedia_slug":null,"has_3d_model":false,"image_url":null,"decayed_at":null,"tle_current":{"epoch":"2026-09-20T22:47:41.411904Z","epoch_age_seconds":98812,"freshness":"FRESH","line1":"1 58069U 23158U   26263.94978486  .00000502  00000+0  27766-4 0  9999","line2":"2 58069  43.0046 222.1089 0001798 284.4242  75.6410 15.27579238165107","mean_motion":15.27579238,"eccentricity":0.0001798,"inclination_deg":43.0046,"raan_deg":222.1089,"arg_perigee_deg":284.4242,"mean_anomaly_deg":75.641,"bstar":2.7766e-5,"rev_number":16510,"period_min":94.266795736589,"perigee_km":481.81773607241,"apogee_km":484.28501941305,"semimajor_km":6861.1883777427,"source":"CELESTRAK","updated_at":"2026-09-21T09:00:33.780681Z"}}}